TimeCST,TemperatureF,Dew PointF,Humidity,Sea Level PressureIn,VisibilityMPH,Wind Direction,Wind SpeedMPH,Gust SpeedMPH,PrecipitationIn,Events,Conditions,WindDirDegrees,DateUTC
12:15 AM,5.7,3.0,89,30.17,10.0,Calm,Calm,-,N/A,,Clear,0,2012-12-14 06:15:00
12:35 AM,3.4,0.1,86,30.17,10.0,Calm,Calm,-,N/A,,Clear,0,2012-12-14 06:35:00
12:55 AM,4.1,1.2,88,30.17,10.0,SSW,3.5,-,N/A,,Clear,210,2012-12-14 06:55:00
1:15 AM,5.4,2.5,88,30.16,10.0,Calm,Calm,-,N/A,,Clear,0,2012-12-14 07:15:00
1:35 AM,5.7,2.8,88,30.16,10.0,Calm,Calm,-,N/A,,Clear,0,2012-12-14 07:35:00
1:55 AM,5.2,2.3,88,30.16,10.0,Calm,Calm,-,N/A,,Clear,0,2012-12-14 07:55:00
2:15 AM,5.5,2.7,88,30.16,10.0,Calm,Calm,-,N/A,,Clear,0,2012-12-14 08:15:00
2:35 AM,5.9,3.0,88,30.17,10.0,WSW,3.5,-,N/A,,Clear,250,2012-12-14 08:35:00
2:55 AM,4.3,1.0,86,30.16,10.0,Calm,Calm,-,N/A,,Clear,0,2012-12-14 08:55:00
3:15 AM,4.1,1.4,89,30.16,10.0,Calm,Calm,-,N/A,,Clear,0,2012-12-14 09:15:00
3:35 AM,4.1,1.2,88,30.17,10.0,Calm,Calm,-,N/A,,Mostly Cloudy,0,2012-12-14 09:35:00
3:55 AM,5.4,2.5,88,30.16,2.5,Calm,Calm,-,N/A,,Overcast,0,2012-12-14 09:55:00
4:15 AM,5.4,2.3,87,30.16,0.2,Calm,Calm,-,N/A,Fog,Light Freezing Fog,0,2012-12-14 10:15:00
4:55 AM,5.9,3.0,88,30.17,0.8,Calm,Calm,-,N/A,,Overcast,0,2012-12-14 10:55:00
5:15 AM,5.7,2.8,88,30.17,0.5,Calm,Calm,-,N/A,Fog,Light Freezing Fog,0,2012-12-14 11:15:00
5:35 AM,5.0,2.1,88,30.17,0.2,Calm,Calm,-,N/A,Fog,Light Freezing Fog,0,2012-12-14 11:35:00
5:55 AM,5.9,3.2,89,30.16,3.0,Calm,Calm,-,N/A,,Overcast,0,2012-12-14 11:55:00
6:15 AM,6.4,3.7,89,30.16,7.0,Calm,Calm,-,N/A,,Overcast,0,2012-12-14 12:15:00
6:35 AM,7.0,4.3,89,30.16,10.0,Calm,Calm,-,N/A,,Overcast,0,2012-12-14 12:35:00
6:55 AM,9.3,7.0,90,30.16,10.0,Calm,Calm,-,N/A,,Overcast,0,2012-12-14 12:55:00
7:15 AM,10.2,7.7,90,30.16,10.0,Calm,Calm,-,N/A,,Overcast,0,2012-12-14 13:15:00
7:35 AM,11.3,8.8,90,30.16,10.0,Calm,Calm,-,N/A,,Overcast,0,2012-12-14 13:35:00
7:55 AM,11.5,9.3,91,30.15,10.0,Calm,Calm,-,N/A,,Overcast,0,2012-12-14 13:55:00
8:15 AM,12.2,10.2,92,30.16,10.0,Calm,Calm,-,N/A,,Overcast,0,2012-12-14 14:15:00
8:35 AM,13.1,11.1,92,30.15,10.0,Calm,Calm,-,N/A,,Overcast,0,2012-12-14 14:35:00
8:55 AM,13.8,11.8,92,30.16,10.0,Calm,Calm,-,N/A,,Overcast,0,2012-12-14 14:55:00
9:15 AM,14.9,13.1,93,30.16,10.0,Calm,Calm,-,N/A,,Overcast,0,2012-12-14 15:15:00
9:35 AM,15.6,14.2,94,30.15,10.0,Calm,Calm,-,N/A,,Overcast,0,2012-12-14 15:35:00
9:55 AM,15.8,14.0,93,30.16,10.0,Calm,Calm,-,N/A,,Overcast,0,2012-12-14 15:55:00
10:15 AM,16.7,14.9,93,30.16,10.0,Calm,Calm,-,N/A,,Overcast,0,2012-12-14 16:15:00
10:35 AM,17.1,15.4,93,30.16,10.0,Calm,Calm,-,N/A,,Overcast,0,2012-12-14 16:35:00
10:55 AM,17.6,16.0,93,30.16,10.0,Calm,Calm,-,N/A,,Overcast,0,2012-12-14 16:55:00
11:15 AM,18.1,16.7,94,30.16,7.0,Calm,Calm,-,N/A,,Overcast,0,2012-12-14 17:15:00
11:35 AM,19.2,17.8,94,30.16,7.0,Calm,Calm,-,N/A,,Overcast,0,2012-12-14 17:35:00
11:55 AM,22.1,21.2,96,30.14,7.0,East,4.6,-,N/A,,Overcast,90,2012-12-14 17:55:00
12:15 PM,23.0,22.1,96,30.13,10.0,East,4.6,-,N/A,,Overcast,90,2012-12-14 18:15:00
12:35 PM,23.7,22.8,96,30.12,10.0,East,4.6,-,N/A,,Overcast,100,2012-12-14 18:35:00
12:55 PM,24.1,23.2,96,30.11,10.0,East,5.8,-,N/A,,Overcast,100,2012-12-14 18:55:00
1:15 PM,24.8,23.9,96,30.10,10.0,East,4.6,-,N/A,,Overcast,100,2012-12-14 19:15:00
1:35 PM,25.0,24.4,98,30.09,10.0,East,5.8,-,N/A,,Overcast,100,2012-12-14 19:35:00
1:55 PM,25.3,24.6,97,30.08,10.0,East,6.9,-,N/A,,Mostly Cloudy,100,2012-12-14 19:55:00
2:15 PM,25.7,25.2,98,30.07,10.0,East,6.9,-,N/A,,Mostly Cloudy,100,2012-12-14 20:15:00
2:35 PM,25.7,25.2,98,30.07,10.0,East,6.9,-,N/A,,Overcast,100,2012-12-14 20:35:00
2:55 PM,25.7,25.0,97,30.05,10.0,East,8.1,-,N/A,,Mostly Cloudy,90,2012-12-14 20:55:00
3:15 PM,25.7,24.8,96,30.05,10.0,East,6.9,-,N/A,,Scattered Clouds,100,2012-12-14 21:15:00
3:35 PM,26.2,25.0,95,30.05,10.0,East,6.9,-,N/A,,Clear,90,2012-12-14 21:35:00
3:55 PM,26.6,24.6,92,30.04,10.0,East,6.9,-,N/A,,Clear,90,2012-12-14 21:55:00
4:15 PM,27.1,24.6,90,30.04,10.0,East,8.1,-,N/A,,Clear,100,2012-12-14 22:15:00
4:35 PM,27.7,24.8,89,30.05,10.0,East,8.1,-,N/A,,Clear,90,2012-12-14 22:35:00
4:55 PM,28.0,24.8,88,30.04,10.0,East,8.1,-,N/A,,Clear,90,2012-12-14 22:55:00
5:15 PM,28.4,25.0,87,30.04,10.0,East,8.1,-,N/A,,Clear,100,2012-12-14 23:15:00
5:35 PM,27.5,24.8,90,30.03,10.0,East,8.1,-,N/A,,Clear,90,2012-12-14 23:35:00
5:55 PM,28.0,25.2,89,30.03,10.0,East,8.1,-,N/A,,Clear,100,2012-12-14 23:55:00
6:15 PM,28.4,25.5,89,30.02,10.0,East,9.2,-,N/A,,Clear,90,2012-12-15 00:15:00
6:35 PM,28.4,25.3,88,30.01,10.0,East,10.4,-,N/A,,Clear,90,2012-12-15 00:35:00
6:55 PM,28.9,25.7,88,30.00,10.0,East,11.5,19.6,N/A,,Clear,80,2012-12-15 00:55:00
7:15 PM,29.1,25.7,87,30.00,10.0,East,9.2,-,N/A,,Clear,90,2012-12-15 01:15:00
7:55 PM,29.3,26.4,89,29.98,10.0,East,10.4,-,N/A,,Clear,90,2012-12-15 01:55:00
8:15 PM,28.9,26.4,90,29.98,10.0,East,6.9,-,N/A,,Clear,90,2012-12-15 02:15:00
8:35 PM,29.3,27.0,91,29.98,10.0,East,8.1,-,N/A,,Clear,90,2012-12-15 02:35:00
8:55 PM,29.8,26.4,87,29.97,10.0,East,12.7,-,N/A,,Clear,90,2012-12-15 02:55:00
9:15 PM,28.8,26.1,90,29.97,10.0,East,8.1,-,N/A,,Clear,90,2012-12-15 03:15:00
9:35 PM,29.1,26.1,88,29.96,10.0,East,6.9,-,N/A,,Clear,100,2012-12-15 03:35:00
9:55 PM,29.3,25.7,86,29.96,10.0,ENE,5.8,-,N/A,,Clear,70,2012-12-15 03:55:00
10:15 PM,29.1,25.7,87,29.95,10.0,ENE,6.9,-,N/A,,Clear,70,2012-12-15 04:15:00
10:35 PM,29.1,25.5,86,29.94,10.0,ENE,4.6,-,N/A,,Clear,60,2012-12-15 04:35:00
10:55 PM,28.9,25.5,87,29.94,10.0,ENE,4.6,-,N/A,,Clear,70,2012-12-15 04:55:00
11:15 PM,29.3,25.7,86,29.93,10.0,ENE,8.1,-,N/A,,Clear,70,2012-12-15 05:15:00
11:35 PM,29.7,25.7,85,29.92,10.0,ENE,4.6,-,N/A,,Clear,70,2012-12-15 05:35:00
11:55 PM,29.8,26.1,86,29.92,10.0,ENE,5.8,-,N/A,,Clear,70,2012-12-15 05:55:00